Lake Worth Weather Center

Moon Phase Calendar



Lake Worth Water Level
Online Cameras

 


      

Current Conditions in Lake Worth
4/11/2021 7:25:08 AM

51°F
Feels Like 48
Clear
Humidity
62%
Pressure
29.77"
Wind
4.6 mph (SSE)
Dew Point
38°F
UV Index
0/10 (Low)
Visibility
6 mi

Hourly Forecast

Date & Time Sun, Apr 11
7:00 AM
Sun, Apr 11
8:00 AM
Sun, Apr 11
9:00 AM
Sun, Apr 11
10:00 AM
Sun, Apr 11
11:00 AM
Sun, Apr 11
12:00 PM
Sun, Apr 11
1:00 PM
Sun, Apr 11
2:00 PM
Sun, Apr 11
3:00 PM
Sun, Apr 11
4:00 PM
Sun, Apr 11
5:00 PM
Sun, Apr 11
6:00 PM
Sun, Apr 11
7:00 PM
Sun, Apr 11
8:00 PM
Sun, Apr 11
9:00 PM
Sun, Apr 11
10:00 PM
Sun, Apr 11
11:00 PM
Mon, Apr 12
12:00 AM
Mon, Apr 12
1:00 AM
Mon, Apr 12
2:00 AM
Mon, Apr 12
3:00 AM
Mon, Apr 12
4:00 AM
Mon, Apr 12
5:00 AM
Mon, Apr 12
6:00 AM
Mon, Apr 12
7:00 AM
Mon, Apr 12
8:00 AM
Mon, Apr 12
9:00 AM
Mon, Apr 12
10:00 AM
Mon, Apr 12
11:00 AM
Mon, Apr 12
12:00 PM
Mon, Apr 12
1:00 PM
Mon, Apr 12
2:00 PM
Mon, Apr 12
3:00 PM
Mon, Apr 12
4:00 PM
Mon, Apr 12
5:00 PM
Mon, Apr 12
6:00 PM
Mon, Apr 12
7:00 PM
Mon, Apr 12
8:00 PM
Mon, Apr 12
9:00 PM
Mon, Apr 12
10:00 PM
Mon, Apr 12
11:00 PM
Tue, Apr 13
12:00 AM
Tue, Apr 13
1:00 AM
Tue, Apr 13
2:00 AM
Tue, Apr 13
3:00 AM
Tue, Apr 13
4:00 AM
Tue, Apr 13
5:00 AM
Tue, Apr 13
6:00 AM
Condition
Clear

Clear

Clear

Clear

Clear

Clear

Clear

Clear

Clear

Clear

Clear

Clear

Clear

Clear

Clear

Clouds

Clouds

Clouds

Clouds

Clouds

Clouds

Clouds

Clouds

Clouds

Clouds

Clouds

Clouds

Rain

Rain

Rain

Rain

Clouds

Clouds

Rain

Rain

Rain

Rain

Rain

Clouds

Clouds

Clouds

Clouds

Clouds

Clouds

Clouds

Clouds

Clouds

Clouds
Temperature 51°F52°F57°F64°F70°F75°F78°F81°F82°F83°F82°F81°F76°F72°F69°F68°F66°F64°F64°F65°F65°F63°F61°F61°F60°F62°F65°F70°F73°F75°F77°F79°F81°F81°F77°F71°F67°F63°F61°F59°F58°F56°F55°F54°F53°F52°F51°F50°F
Feels Like 48°F49°F55°F62°F69°F73°F77°F79°F80°F81°F81°F80°F76°F71°F68°F67°F65°F63°F63°F64°F64°F62°F61°F60°F60°F62°F65°F70°F73°F76°F77°F79°F82°F81°F77°F71°F67°F62°F61°F59°F57°F56°F55°F54°F52°F51°F50°F49°F
Cloudiness 1%1%0%0%0%0%0%0%0%0%0%0%0%0%2%26%42%43%52%100%55%64%73%78%82%100%99%99%99%99%100%100%100%100%100%100%98%100%100%100%100%100%100%100%56%40%30%24%
Visibility 6 mi6 mi6 mi6 mi6 mi6 mi6 mi6 mi6 mi6 mi6 mi6 mi6 mi6 mi6 mi6 mi6 mi6 mi6 mi6 mi6 mi6 mi6 mi6 mi6 mi6 mi6 mi6 mi6 mi6 mi6 mi6 mi6 mi6 mi6 mi6 mi6 mi6 mi6 mi6 mi6 mi6 mi6 mi6 mi6 mi6 mi6 mi6 mi
Precipitation 0%0%0%0%0%0%0%0%0%0%0%0%0%0%0%0%0%0%0%0%0%0%0%0%0%0%4%31%36%59%59%8%15%33%57%68%91%100%73%86%78%70%66%3%0%3%0%0%
Humidity 62%59%51%41%35%32%30%28%28%28%29%34%41%47%49%52%55%59%58%55%59%68%78%87%89%87%80%72%68%64%62%57%52%50%55%68%75%78%81%82%84%84%85%87%87%85%82%81%
Dew Point 38°F38°F39°F40°F41°F43°F44°F45°F46°F47°F47°F50°F51°F50°F50°F50°F50°F49°F49°F49°F50°F52°F54°F56°F56°F58°F59°F60°F62°F62°F63°F63°F61°F60°F59°F59°F58°F56°F55°F54°F53°F51°F51°F50°F49°F47°F45°F45°F
Pressure 29.77"29.77"29.8"29.8"29.77"29.74"29.71"29.68"29.65"29.65"29.62"29.62"29.62"29.62"29.65"29.68"29.68"29.68"29.68"29.68"29.68"29.68"29.68"29.71"29.74"29.77"29.8"29.8"29.8"29.8"29.8"29.8"29.77"29.77"29.77"29.8"29.85"29.88"29.88"29.94"29.94"29.97"29.97"29.97"29.97"29.97"30"30"
Wind Speed 8.8 mph7.8 mph9.4 mph9.8 mph11.5 mph13.7 mph14.2 mph15.3 mph16 mph16.8 mph17 mph15.6 mph15.5 mph14.5 mph13.7 mph11.8 mph10.8 mph9.8 mph10.8 mph14.1 mph13.9 mph12.2 mph10.4 mph8.9 mph6.3 mph8.3 mph11.3 mph10.1 mph9.2 mph10 mph8.8 mph7.4 mph7.4 mph6.4 mph8.8 mph19.2 mph14.3 mph13.6 mph13.8 mph14.5 mph13.3 mph12.7 mph11.3 mph10.3 mph12.4 mph12.6 mph11.5 mph10.6 mph
Wind
Direction
196°
SSW
198°
SSW
203°
SSW
197°
SSW
193°
SSW
193°
SSW
191°
S
190°
S
188°
S
184°
S
182°
S
166°
SSE
146°
SE
141°
SE
144°
SE
149°
SSE
158°
SSE
156°
SSE
159°
SSE
169°
S
167°
SSE
169°
S
160°
SSE
149°
SSE
142°
SE
141°
SE
155°
SSE
171°
S
186°
S
201°
SSW
199°
SSW
201°
SSW
225°
SW
269°
W
330°
NNW
16°
NNE
16°
NNE
24°
NNE
22°
NNE

N
10°
N
12°
NNE

N

N
354°
N

N

N

N

Daily Forecast

Date High Low Precip. Humidity
Today
Apr 11

Clear
83 °F
51 °F
0%
30%
Monday
Apr 12

Rain
81 °F
58 °F
100%
62%
Tuesday
Apr 13

Rain
70 °F
50 °F
95%
71%
Wednesday
Apr 14

Rain
64 °F
55 °F
100%
81%
Thursday
Apr 15

Rain
60 °F
56 °F
100%
72%
Friday
Apr 16

Rain
61 °F
52 °F
100%
94%
Saturday
Apr 17

Clouds
61 °F
48 °F
24%
56%
Sunday
Apr 18

Clear
66 °F
45 °F
0%
47%
Monday
Apr 19

Rain
57 °F
53 °F
90%
58%
Tuesday
Apr 20

Rain
65 °F
52 °F
36%
72%
Wednesday
Apr 21

Clouds
73 °F
53 °F
0%
54%
Thursday
Apr 22

Clouds
83 °F
59 °F
0%
51%
Friday
Apr 23

Rain
67 °F
54 °F
20%
59%
Saturday
Apr 24

Rain
63 °F
46 °F
100%
90%
Sunday
Apr 25

Clouds
58 °F
40 °F
33%
51%
Monday
Apr 26

Clouds
62 °F
41 °F
30%
42%

Temperature 8-14 Day Outlook



Precipitation 8-14 Day Outlook




Quick Links
Lake Worth News
Lake Worth Photos
Lake Worth Videos




About Us
Contact Us
Site Map
Search Site
Advertise With Us
   
Worth.LakesOnline.com
THE LAKE WORTH WEBSITE

Copyright 2021, Lakes Online
Privacy    |    Legal